Find Starlink 6160

NORAD ID: 56382 Int'l Des: 2023-061 Owner: SPXS Country: US Constellation: starlink operational
LEOCIRCULAR

現在のビュー

3D地球を読み込み中...

About Starlink 6160

Starlink 6160 (NORAD 56382) is a starlink constellation satellite (v1.5) launched May 4, 2023 by SPXS of US. It operates in LEO, CIRCULAR orbit with a mass of 305.00 kg.

次回通過

Passes for default location (London). Set your location on the main map for personalized predictions.

高度履歴

Loading altitude history...

軌道要素

1 56382U 23061J 26264.17373570 .00000088 00000-0 12726-4 0 9997
2 56382 43.0013 174.1414 0000955 249.0469 111.0280 15.27576758186643
Epoch: Sep 21, 2026 • Age: 16 hours

現在のステータス

高度 482.1 km
遠地点 / 近地点 N/A
速度 7.63 km/s
衛星直下点 12.24°N, 27.65°E
打ち上げ日 May 4, 2023
運用期間 3.3 years
タイプ internet

技術仕様

分類 Payload
質量 305.00 kg
乾燥質量 290.00 kg
長さ 0.20 m
スパン 9.00 m
形状 ? Box + pan
製造者 SPXS
バスタイプ Starlink
フェーズステータス In Orbit
所有者/国 SPXS/US

Most Searched